Showing default

COSMOS 2572, 58435

Orbit data source: Space-Track

COSMOS 2572, 58435 is a payload satellite owned by MO RF (CIS) in SSO that was launched on Sat, 25 Nov 2023 UTC via a SOYUZ-2-1B launch vehicle from the Plesetsk Missile And Space Complex (PKMTR). Payload-class satellites include a variety of spacecraft equipped with specific instruments for various scientific and technological missions. These include communications satellites like Starlink; space stations such as the ISS; scientific satellites like the Hubble; Earth observation satellites from companies like Planet Labs, Umbra, and HawkEye 360; GPS; miniature CubeSats for education and research; and military/defense satellites.

Not visible in the next 10 days
Identifier
58435, 2023-182A
Orbit
SSO
Country
Flag of CISCIS
Related business
Manufacturer
TSSKBP/ARSLO
Mission
Operational Defense Imaging
Bus & Motor
RAZDAN?, 11D428
Mass
~1,000 kg wet, ~1,000 kg dry
Launch date (UTC)
2023-11-25 (3 years ago)
Launch vehicle
SOYUZ-2-1B
Launch site
Plesetsk Missile And Space Complex (PKMTR)
Object type
Payload
Rocket body
Debris
Shape & HBR
Cyl + 2 Pan, 3.1 m
Radar Cross Section
16.222 m², Large (>1 m²)

Expand to show TLE details & history
Last TLE update: 2 days ago

TLE from 2 days ago
0 COSMOS 2572
1 58435U 23182A   26171.58294154  .00000274  18807-5  28800-5 0  9991
2 58435  96.6819 275.6027 0014320 210.5599 149.4843 15.90109787148997
Epoch: 2026-06-20T13:59Z
TLE epoch observation values (Epoch: 2026-06-20T13:59:26.149Z)
Latitude
Longitude
156.94826°
Altitude
313.427 km
Speed
7.715 km/s
True Right ascension
18h 22m 24s
True Declination
0° 00' 00"
Sunlit
Object was in full shadow at epoch
Visualization orbit readout
Latitude
Unknown
Longitude
Unknown
Altitude
Unknown
Speed
Unknown
Apparent Right ascension
Unknown
Apparent Declination
Unknown
Sunlit
N/A
Visualization observer readout
Local Sidereal Time
23:07:27
Azimuth
Unknown
Elevation
Unknown
Doppler factor
Unknown
Orbital elements
Apogee altitude
308.379 km
Perigee altitude
289.257 km
Semi-major axis
6,676.955 km
Eccentricity
0.00143
Inclination
96.6819°
RAAN
275.6027°
Arg. of periapsis
210.5599°
True anomaly
149.56749°
Mean anomaly
149.4843°
Eccentric anomaly
149.52591°
Mean motion
3.9781 °/min
Orbital period
90.5 mins
BSTAR
0.00000288
Loading maneuver chart data...
Computing Atmospheric mass density...
Loading historical data...
Loading historical data...
Loading historical data...
Loading historical data...
Loading historical data...
Loading historical data...
Loading historical data...
Other satellites on launch #182 in the year 2023 (2023-11-25 UTC)

Documentation

Showing up to 5 results
|